Location: Ar Ranvel
(48.3000°N, 4.8833°W)
Time: 17:39:43
(UTC+00:00)

Cosmos 2322 Rocket - Pass Details

Date: 27 October 2021
Orbit: 832 x 851 km, 71.0° (Epoch: 27 November)

Event Time Altitude Azimuth Distance (km) Brightness Sun altitude
Rises 20:48:47 0° 275° (W) 3,380 6.2 -36.7°
Reaches altitude 10° 20:52:46 10° 303° (WNW) 2,452 5.3 -37.3°
Maximum altitude 20:55:15 13° 329° (NNW) 2,255 4.9 -37.6°
Drops below altitude 10° 20:57:45 10° 356° (N) 2,461 4.9 -38.0°
Enters shadow 20:58:36 - 3° (N) 2,611 5.0 -38.1°
